Retour au catalogue

CZ-6A DEB

ActifPO
NORAD 60976·DEBRIS·🇨🇳 China

Lancé Aug 6, 2024 depuis Taiyuan Satellite Launch Center

Loading…

Prochains Passages (prochaines 24 heures)

TLE

FraisSource: Space-Track

Époque: Sep 14, 2026, 09:41 UTC

1 60976U 24140MB  26257.40406950  .00011564  00000-0  17951-2 0  9991
2 60976  88.9445 255.0551 0040094  35.9599 324.4305 14.72492223109858

Suivez CZ-6A DEB en temps réel avec AllMySat

Download on the App Store